TimeEDT,TemperatureF,Dew PointF,Humidity,Sea Level PressureIn,VisibilityMPH,Wind Direction,Wind SpeedMPH,Gust SpeedMPH,PrecipitationIn,Events,Conditions,WindDirDegrees,DateUTC
12:15 AM,46.9,23.9,40,30.22,10.0,South,3.5,-,N/A,,Clear,190,2013-04-07 04:15:00
12:35 AM,49.1,22.8,36,30.22,10.0,South,4.6,-,N/A,,Clear,180,2013-04-07 04:35:00
12:55 AM,50.2,23.9,36,30.21,10.0,South,9.2,-,N/A,,Clear,180,2013-04-07 04:55:00
1:15 AM,50.0,26.1,39,30.21,10.0,South,11.5,-,N/A,,Clear,190,2013-04-07 05:15:00
1:35 AM,49.5,26.8,41,30.21,10.0,South,9.2,-,N/A,,Clear,180,2013-04-07 05:35:00
1:55 AM,49.1,27.3,43,30.21,10.0,South,10.4,-,N/A,,Clear,170,2013-04-07 05:55:00
2:15 AM,48.2,27.9,45,30.20,10.0,South,10.4,-,N/A,,Clear,170,2013-04-07 06:15:00
2:35 AM,47.8,28.4,47,30.20,10.0,South,11.5,17.3,N/A,,Clear,180,2013-04-07 06:35:00
2:55 AM,47.5,28.8,48,30.20,10.0,South,9.2,16.1,N/A,,Clear,180,2013-04-07 06:55:00
3:15 AM,47.3,29.1,49,30.20,10.0,South,9.2,16.1,N/A,,Clear,170,2013-04-07 07:15:00
3:35 AM,47.3,29.5,50,30.20,10.0,South,6.9,-,N/A,,Clear,180,2013-04-07 07:35:00
3:55 AM,47.3,30.4,52,30.20,10.0,South,9.2,-,N/A,,Clear,180,2013-04-07 07:55:00
4:15 AM,46.8,30.9,54,30.20,10.0,South,10.4,-,N/A,,Clear,170,2013-04-07 08:15:00
4:35 AM,46.4,31.1,55,30.19,10.0,South,10.4,-,N/A,,Clear,170,2013-04-07 08:35:00
4:55 AM,45.7,31.6,58,30.20,10.0,South,8.1,-,N/A,,Clear,170,2013-04-07 08:55:00
5:15 AM,45.1,31.8,60,30.20,10.0,SSW,4.6,-,N/A,,Clear,200,2013-04-07 09:15:00
5:35 AM,43.5,31.8,63,30.19,10.0,South,3.5,-,N/A,,Clear,190,2013-04-07 09:35:00
5:55 AM,43.7,32.0,63,30.19,10.0,South,5.8,-,N/A,,Clear,190,2013-04-07 09:55:00
6:15 AM,43.7,32.0,63,30.19,10.0,SSW,4.6,-,N/A,,Clear,200,2013-04-07 10:15:00
6:35 AM,41.0,32.0,70,30.19,10.0,SSW,5.8,-,N/A,,Clear,210,2013-04-07 10:35:00
6:55 AM,41.2,32.0,70,30.19,10.0,SSW,4.6,-,N/A,,Clear,210,2013-04-07 10:55:00
7:15 AM,43.0,32.5,67,30.20,10.0,SSW,5.8,-,N/A,,Clear,200,2013-04-07 11:15:00
7:35 AM,42.6,32.5,68,30.20,10.0,SW,5.8,-,N/A,,Clear,220,2013-04-07 11:35:00
7:55 AM,43.5,33.1,67,30.20,10.0,SSW,4.6,-,N/A,,Clear,210,2013-04-07 11:55:00
8:15 AM,46.2,34.0,62,30.21,10.0,SSW,5.8,-,N/A,,Clear,200,2013-04-07 12:15:00
8:35 AM,48.0,34.5,60,30.20,10.0,SSW,6.9,-,N/A,,Clear,200,2013-04-07 12:35:00
8:55 AM,49.1,35.1,58,30.20,10.0,SSW,8.1,-,N/A,,Clear,210,2013-04-07 12:55:00
9:15 AM,51.1,36.1,57,30.19,10.0,SSW,8.1,-,N/A,,Clear,200,2013-04-07 13:15:00
9:35 AM,51.3,36.1,56,30.19,10.0,South,5.8,9.2,N/A,,Clear,180,2013-04-07 13:35:00
9:55 AM,53.1,37.0,55,30.18,10.0,SSW,9.2,-,N/A,,Clear,210,2013-04-07 13:55:00
10:15 AM,55.4,37.8,52,30.18,10.0,SW,9.2,-,N/A,,Clear,220,2013-04-07 14:15:00
10:35 AM,55.8,36.7,49,30.17,10.0,SW,16.1,24.2,N/A,,Clear,220,2013-04-07 14:35:00
10:55 AM,57.9,37.9,47,30.17,10.0,SW,13.8,-,N/A,,Clear,220,2013-04-07 14:55:00
11:15 AM,57.0,37.6,48,30.17,10.0,South,12.7,16.1,N/A,,Clear,190,2013-04-07 15:15:00
11:35 AM,59.4,38.1,45,30.16,10.0,SSW,9.2,-,N/A,,Clear,200,2013-04-07 15:35:00
11:55 AM,60.4,37.0,42,30.15,10.0,SW,15.0,20.7,N/A,,Clear,220,2013-04-07 15:55:00
12:15 PM,62.2,37.0,39,30.13,10.0,SW,13.8,19.6,N/A,,Clear,220,2013-04-07 16:15:00
12:35 PM,61.9,38.1,41,30.12,10.0,South,12.7,16.1,N/A,,Clear,190,2013-04-07 16:35:00
12:55 PM,65.3,37.6,36,30.12,10.0,SW,16.1,21.9,N/A,,Clear,230,2013-04-07 16:55:00
1:15 PM,65.7,36.9,35,30.11,10.0,SW,12.7,24.2,N/A,,Clear,220,2013-04-07 17:15:00
1:35 PM,66.7,36.7,33,30.09,10.0,SSW,17.3,27.6,N/A,,Clear,210,2013-04-07 17:35:00
1:55 PM,67.1,36.7,33,30.09,10.0,SSW,19.6,27.6,N/A,,Clear,210,2013-04-07 17:55:00
2:15 PM,67.5,36.9,32,30.08,10.0,SW,13.8,23.0,N/A,,Clear,220,2013-04-07 18:15:00
2:35 PM,68.4,37.6,32,30.07,10.0,SSW,17.3,21.9,N/A,,Clear,200,2013-04-07 18:35:00
2:55 PM,68.7,37.6,32,30.06,10.0,SSW,17.3,24.2,N/A,,Clear,200,2013-04-07 18:55:00
3:15 PM,69.8,37.6,31,30.05,10.0,SW,15.0,25.3,N/A,,Clear,220,2013-04-07 19:15:00
3:35 PM,70.2,37.9,31,30.04,10.0,SSW,18.4,23.0,N/A,,Clear,200,2013-04-07 19:35:00
3:55 PM,70.9,37.8,30,30.03,10.0,SW,18.4,25.3,N/A,,Clear,220,2013-04-07 19:55:00
4:15 PM,70.9,38.1,30,30.02,10.0,SSW,18.4,25.3,N/A,,Clear,210,2013-04-07 20:15:00
4:35 PM,71.6,37.9,29,30.02,10.0,SSW,18.4,24.2,N/A,,Clear,210,2013-04-07 20:35:00
4:55 PM,71.8,38.1,29,30.02,10.0,SW,15.0,23.0,N/A,,Clear,220,2013-04-07 20:55:00
5:15 PM,71.6,37.6,29,30.03,10.0,SSW,18.4,25.3,N/A,,Clear,210,2013-04-07 21:15:00
5:35 PM,72.0,38.1,29,30.02,10.0,SSW,12.7,20.7,N/A,,Clear,200,2013-04-07 21:35:00
5:55 PM,72.0,37.9,29,30.02,10.0,SW,16.1,20.7,N/A,,Clear,220,2013-04-07 21:55:00
6:15 PM,71.8,38.3,30,30.02,10.0,SW,13.8,19.6,N/A,,Clear,220,2013-04-07 22:15:00
6:55 PM,69.8,39.4,33,30.03,10.0,SSW,8.1,-,N/A,,Clear,200,2013-04-07 22:55:00
7:15 PM,68.5,39.0,34,30.03,10.0,South,9.2,-,N/A,,Clear,180,2013-04-07 23:15:00
7:35 PM,67.1,39.7,37,30.03,10.0,South,9.2,-,N/A,,Clear,190,2013-04-07 23:35:00
7:55 PM,65.7,39.9,39,30.03,10.0,South,6.9,-,N/A,,Clear,190,2013-04-07 23:55:00
8:15 PM,64.6,40.3,41,30.03,10.0,SSW,6.9,-,N/A,,Clear,200,2013-04-08 00:15:00
8:35 PM,63.3,40.5,43,30.04,10.0,SSW,6.9,-,N/A,,Clear,200,2013-04-08 00:35:00
8:55 PM,63.5,40.5,43,30.04,10.0,South,6.9,-,N/A,,Clear,190,2013-04-08 00:55:00
9:15 PM,63.0,40.5,44,30.05,10.0,South,8.1,-,N/A,,Clear,190,2013-04-08 01:15:00
9:35 PM,61.7,41.0,47,30.05,10.0,South,5.8,-,N/A,,Clear,190,2013-04-08 01:35:00
9:55 PM,57.4,41.4,55,30.06,10.0,SSW,4.6,-,N/A,,Clear,210,2013-04-08 01:55:00
10:15 PM,56.3,41.5,58,30.06,10.0,South,3.5,-,N/A,,Scattered Clouds,180,2013-04-08 02:15:00
10:35 PM,57.7,41.7,55,30.07,10.0,Calm,Calm,-,N/A,,Clear,0,2013-04-08 02:35:00
10:55 PM,58.1,41.5,54,30.07,10.0,Calm,Calm,-,N/A,,Clear,0,2013-04-08 02:55:00
11:15 PM,56.1,41.9,59,30.07,10.0,SSE,4.6,-,N/A,,Clear,150,2013-04-08 03:15:00
11:35 PM,54.0,41.9,64,30.07,10.0,SSE,3.5,-,N/A,,Clear,160,2013-04-08 03:35:00
11:55 PM,56.5,42.1,59,30.07,10.0,South,3.5,-,N/A,,Clear,170,2013-04-08 03:55:00